Overview Statistics Trail Chart Weather Telemetry Raw packets
 

This is the latest recevied weather packets stored in our database for station/object WX0ABE-13. If no packets are shown the sender has not sent any weather packets the latest 10 day(s).

<< 33 34 35 36 37 38 39 >>
Time Temp. Humidity Pressure Rain* Wind** Luminosity Snow
1788125453 32.78° C 28% 1014.5 hPa 0 mm - 461 W/m² -
1788125148 33.33° C 29% 1014.6 hPa 0 mm - 576 W/m² -
1788124849 33.33° C 28% 1014.6 hPa 0 mm - 551 W/m² -
1788124538 33.33° C 30% 1014.8 hPa 0 mm - 414 W/m² -
1788124238 33.33° C 30% 1014.9 hPa 0 mm - 327 W/m² -
1788123933 32.78° C 30% 1014.8 hPa 0 mm - 312 W/m² -
1788123632 32.78° C 30% 1014.8 hPa 0 mm - 304 W/m² -
1788123330 32.78° C 30% 1014.7 hPa 0 mm - 339 W/m² -
1788123026 32.78° C 29% 1014.7 hPa 0 mm - 307 W/m² -
1788122725 32.22° C 30% 1014.7 hPa 0 mm - 603 W/m² -
1788122424 32.22° C 31% 1014.6 hPa 0 mm - 611 W/m² -
1788122121 32.78° C 30% 1014.7 hPa 0 mm - 614 W/m² -
1788121816 32.78° C 32% 1014.6 hPa 0 mm - 588 W/m² -
1788121516 32.22° C 33% 1014.8 hPa 0 mm - 500 W/m² -
1788121212 31.67° C 34% 1014.6 hPa 0 mm - 462 W/m² -
1788120914 31.11° C 33% 1014.6 hPa 0 mm - 524 W/m² -
1788120606 30.56° C 37% 1014.8 hPa 0 mm - 506 W/m² -
1788120307 30.56° C 36% 1014.7 hPa 0 mm - 382 W/m² -
1788120006 30.56° C 35% 1014.5 hPa 0 mm - 427 W/m² -
1788119701 31.11° C 35% 1014.6 hPa 0 mm - 628 W/m² -
1788119399 30.56° C 35% 1014.8 hPa 0 mm - 676 W/m² -
1788119099 30.56° C 36% 1014.7 hPa 0 mm - 376 W/m² -
1788118794 30.56° C 36% 1014.8 hPa 0 mm - 475 W/m² -
1788118493 30° C 37% 1014.9 hPa 0 mm - 337 W/m² -
1788118189 30.56° C 37% 1014.7 hPa 0 mm - 306 W/m² -

* Rain latest hour (hover to see other rain measurements)
** Current wind speed in m/s (hover to see current wind gust speed)